Time,TemperatureF,DewpointF,PressureIn,WindDirection,WindDirectionDegrees,WindSpeedMPH,WindSpeedGustMPH,Humidity,HourlyPrecipIn,Conditions,Clouds,dailyrainin,SoftwareType,DateUTC
2013-08-21 00:01:00,54.0,51.0,29.99,ESE,119,0.0,0.0,90,0.00,,,0.00,,2013-08-21 07:01:00,
2013-08-21 00:11:00,54.0,51.0,29.99,ESE,119,0.0,0.0,90,0.00,,,0.00,,2013-08-21 07:11:00,
2013-08-21 00:53:00,51.0,48.0,29.99,ESE,119,0.0,0.0,91,0.00,,,0.00,,2013-08-21 07:53:00,
2013-08-21 01:03:00,51.0,48.0,29.99,ESE,119,0.0,0.0,91,0.00,,,0.00,,2013-08-21 08:03:00,
2013-08-21 01:12:00,51.0,48.0,29.99,ESE,119,0.0,0.0,91,0.00,,,0.00,,2013-08-21 08:12:00,
2013-08-21 01:22:00,51.0,48.0,29.99,ESE,119,0.0,0.0,91,0.00,,,0.00,,2013-08-21 08:22:00,
2013-08-21 01:52:00,49.0,47.0,29.98,ESE,119,0.0,0.0,93,0.00,,,0.00,,2013-08-21 08:52:00,
2013-08-21 02:11:00,48.0,46.0,29.98,ESE,119,0.0,0.0,93,0.00,,,0.00,,2013-08-21 09:11:00,
2013-08-21 02:22:00,48.0,46.0,29.98,ESE,119,0.0,0.0,93,0.00,,,0.00,,2013-08-21 09:22:00,
2013-08-21 02:53:00,47.0,45.0,29.97,ESE,119,0.0,0.0,93,0.00,,,0.00,,2013-08-21 09:53:00,
2013-08-21 03:12:00,47.0,45.0,29.98,ESE,119,0.0,0.0,93,0.00,,,0.00,,2013-08-21 10:12:00,
2013-08-21 03:23:00,46.0,44.0,29.96,ESE,119,0.0,0.0,94,0.00,,,0.00,,2013-08-21 10:23:00,
2013-08-21 03:33:00,46.0,44.0,29.96,ESE,119,0.0,0.0,94,0.00,,,0.00,,2013-08-21 10:33:00,
2013-08-21 03:52:00,46.0,44.0,29.97,ESE,119,0.0,0.0,94,0.00,,,0.00,,2013-08-21 10:52:00,
2013-08-21 04:03:00,46.0,44.0,29.97,ESE,119,0.0,0.0,94,0.00,,,0.00,,2013-08-21 11:03:00,
2013-08-21 04:22:00,46.0,44.0,29.97,ESE,119,0.0,0.0,94,0.00,,,0.00,,2013-08-21 11:22:00,
2013-08-21 04:33:00,46.0,44.0,29.97,ESE,119,0.0,0.0,94,0.00,,,0.00,,2013-08-21 11:33:00,
2013-08-21 04:52:00,45.0,43.0,29.97,ESE,119,0.0,0.0,94,0.00,,,0.00,,2013-08-21 11:52:00,
2013-08-21 05:12:00,45.0,43.0,29.97,ESE,119,0.0,0.0,94,0.00,,,0.00,,2013-08-21 12:12:00,
2013-08-21 05:22:00,45.0,43.0,29.97,ESE,119,0.0,0.0,94,0.00,,,0.00,,2013-08-21 12:22:00,
2013-08-21 05:52:00,45.0,44.0,29.97,ESE,119,0.0,0.0,95,0.00,,,0.00,,2013-08-21 12:52:00,
2013-08-21 06:11:00,45.0,44.0,29.97,ESE,119,0.0,0.0,95,0.00,,,0.00,,2013-08-21 13:11:00,
2013-08-21 06:21:00,45.0,44.0,29.97,ESE,119,0.0,0.0,95,0.00,,,0.00,,2013-08-21 13:21:00,
2013-08-21 06:32:00,45.0,44.0,29.97,ESE,119,0.0,0.0,95,0.00,,,0.00,,2013-08-21 13:32:00,
2013-08-21 06:42:00,45.0,44.0,29.97,ESE,119,0.0,0.0,95,0.00,,,0.00,,2013-08-21 13:42:00,
2013-08-21 06:52:00,45.0,44.0,29.97,ESE,119,0.0,0.0,95,0.00,,,0.00,,2013-08-21 13:52:00,
2013-08-21 07:11:00,46.0,45.0,29.98,ESE,119,0.0,0.0,96,0.00,,,0.00,,2013-08-21 14:11:00,
2013-08-21 07:21:00,46.0,45.0,29.98,ESE,119,0.0,0.0,96,0.00,,,0.00,,2013-08-21 14:21:00,
2013-08-21 07:52:00,47.0,46.0,29.98,ESE,119,0.0,0.0,96,0.00,,,0.00,,2013-08-21 14:52:00,
2013-08-21 08:11:00,47.0,46.0,29.98,ESE,119,0.0,0.0,96,0.00,,,0.00,,2013-08-21 15:11:00,
2013-08-21 08:22:00,48.0,47.0,29.98,ESE,119,0.0,0.0,96,0.00,,,0.00,,2013-08-21 15:22:00,
2013-08-21 08:43:00,49.0,48.0,29.98,ESE,112,0.0,0.0,97,0.00,,,0.00,,2013-08-21 15:43:00,
2013-08-21 08:54:00,50.0,49.0,29.98,ESE,112,0.0,0.0,97,0.00,,,0.00,,2013-08-21 15:54:00,
2013-08-21 09:24:00,51.0,50.0,29.98,East,83,0.0,2.0,97,0.00,,,0.00,,2013-08-21 16:24:00,
2013-08-21 09:34:00,51.0,50.0,29.98,East,83,0.0,2.0,97,0.00,,,0.00,,2013-08-21 16:34:00,
2013-08-21 09:53:00,51.0,50.0,29.98,East,83,0.0,2.0,97,0.00,,,0.00,,2013-08-21 16:53:00,
2013-08-21 10:13:00,54.0,53.0,29.98,East,83,0.0,1.0,97,0.00,,,0.00,,2013-08-21 17:13:00,
2013-08-21 10:23:00,54.0,53.0,29.98,East,83,0.0,1.0,97,0.00,,,0.00,,2013-08-21 17:23:00,
2013-08-21 10:53:00,61.0,56.0,29.97,SW,226,0.0,2.0,85,0.00,,,0.00,,2013-08-21 17:53:00,
2013-08-21 11:12:00,63.0,57.0,29.97,SW,227,0.0,2.0,81,0.00,,,0.00,,2013-08-21 18:12:00,
2013-08-21 11:22:00,63.0,57.0,29.97,SW,227,0.0,2.0,81,0.00,,,0.00,,2013-08-21 18:22:00,
2013-08-21 11:32:00,63.0,57.0,29.97,SW,227,0.0,2.0,81,0.00,,,0.00,,2013-08-21 18:32:00,
2013-08-21 12:12:00,60.0,54.0,29.98,NE,55,0.0,3.0,81,0.00,,,0.00,,2013-08-21 19:12:00,
2013-08-21 12:22:00,62.0,55.0,29.97,SSW,211,1.0,4.0,79,0.00,,,0.00,,2013-08-21 19:22:00,
2013-08-21 12:32:00,62.0,55.0,29.97,SSW,211,1.0,4.0,79,0.00,,,0.00,,2013-08-21 19:32:00,
2013-08-21 12:52:00,62.0,56.0,29.97,West,266,1.0,3.0,80,0.00,,,0.00,,2013-08-21 19:52:00,
2013-08-21 13:11:00,62.0,55.0,29.96,WSW,240,2.0,5.0,77,0.00,,,0.00,,2013-08-21 20:11:00,
2013-08-21 13:22:00,62.0,55.0,29.96,WSW,240,2.0,5.0,77,0.00,,,0.00,,2013-08-21 20:22:00,
2013-08-21 13:32:00,62.0,55.0,29.96,WSW,240,2.0,5.0,77,0.00,,,0.00,,2013-08-21 20:32:00,
2013-08-21 13:52:00,63.0,55.0,29.96,WSW,243,1.0,4.0,75,0.00,,,0.00,,2013-08-21 20:52:00,
2013-08-21 14:21:00,63.0,55.0,29.95,WSW,238,1.0,5.0,74,0.00,,,0.00,,2013-08-21 21:21:00,
2013-08-21 14:34:00,63.0,55.0,29.95,WSW,238,1.0,5.0,74,0.00,,,0.00,,2013-08-21 21:34:00,
2013-08-21 14:44:00,63.0,55.0,29.95,WSW,238,1.0,5.0,74,0.00,,,0.00,,2013-08-21 21:44:00,
2013-08-21 14:54:00,63.0,55.0,29.95,WSW,238,1.0,5.0,74,0.00,,,0.00,,2013-08-21 21:54:00,
2013-08-21 15:14:00,65.0,55.0,29.95,SW,219,1.0,4.0,71,0.00,,,0.00,,2013-08-21 22:14:00,
2013-08-21 15:24:00,65.0,55.0,29.95,SW,219,1.0,4.0,71,0.00,,,0.00,,2013-08-21 22:24:00,
2013-08-21 15:34:00,65.0,55.0,29.95,SW,219,1.0,4.0,71,0.00,,,0.00,,2013-08-21 22:34:00,
2013-08-21 16:22:00,68.0,56.0,29.93,North,9,1.0,5.0,65,0.00,,,0.00,,2013-08-21 23:22:00,
2013-08-21 16:52:00,68.0,57.0,29.92,East,89,0.0,4.0,68,0.00,,,0.00,,2013-08-21 23:52:00,
2013-08-21 17:12:00,67.0,56.0,29.92,ENE,63,1.0,4.0,69,0.00,,,0.00,,2013-08-22 00:12:00,
2013-08-21 17:21:00,67.0,56.0,29.92,ENE,63,1.0,4.0,69,0.00,,,0.00,,2013-08-22 00:21:00,
2013-08-21 17:42:00,67.0,57.0,29.92,SE,127,1.0,6.0,71,0.00,,,0.00,,2013-08-22 00:42:00,
2013-08-21 17:52:00,66.0,56.0,29.91,NNE,29,1.0,6.0,71,0.00,,,0.00,,2013-08-22 00:52:00,
2013-08-21 18:11:00,65.0,56.0,29.92,ENE,67,0.0,4.0,73,0.00,,,0.00,,2013-08-22 01:11:00,
2013-08-21 18:22:00,63.0,56.0,29.92,North,352,0.0,3.0,77,0.00,,,0.00,,2013-08-22 01:22:00,
2013-08-21 18:52:00,62.0,56.0,29.91,ESE,102,0.0,6.0,80,0.00,,,0.00,,2013-08-22 01:52:00,
2013-08-21 19:12:00,61.0,55.0,29.92,NNE,24,1.0,5.0,81,0.00,,,0.00,,2013-08-22 02:12:00,
2013-08-21 19:22:00,61.0,55.0,29.92,NNE,24,1.0,5.0,81,0.00,,,0.00,,2013-08-22 02:22:00,
2013-08-21 19:52:00,61.0,55.0,29.92,ENE,69,0.0,2.0,82,0.00,,,0.00,,2013-08-22 02:52:00,
2013-08-21 20:02:00,61.0,55.0,29.92,ENE,69,0.0,2.0,82,0.00,,,0.00,,2013-08-22 03:02:00,
2013-08-21 20:12:00,61.0,55.0,29.92,ENE,69,0.0,2.0,82,0.00,,,0.00,,2013-08-22 03:12:00,
2013-08-21 20:22:00,59.0,54.0,29.93,East,101,0.0,1.0,85,0.00,,,0.00,,2013-08-22 03:22:00,
2013-08-21 20:34:00,59.0,54.0,29.93,East,101,0.0,1.0,85,0.00,,,0.00,,2013-08-22 03:34:00,
2013-08-21 20:45:00,59.0,54.0,29.93,East,101,0.0,1.0,85,0.00,,,0.00,,2013-08-22 03:45:00,
2013-08-21 20:54:00,58.0,54.0,29.93,East,98,0.0,0.0,87,0.00,,,0.00,,2013-08-22 03:54:00,
2013-08-21 21:04:00,58.0,54.0,29.93,East,98,0.0,0.0,87,0.00,,,0.00,,2013-08-22 04:04:00,
2013-08-21 21:14:00,58.0,54.0,29.93,East,98,0.0,0.0,87,0.00,,,0.00,,2013-08-22 04:14:00,
2013-08-21 21:23:00,58.0,54.0,29.93,East,98,0.0,0.0,87,0.00,,,0.00,,2013-08-22 04:23:00,
2013-08-21 21:54:00,56.0,53.0,29.94,East,98,0.0,0.0,90,0.00,,,0.00,,2013-08-22 04:54:00,
2013-08-21 22:03:00,56.0,53.0,29.94,East,98,0.0,0.0,90,0.00,,,0.00,,2013-08-22 05:03:00,
2013-08-21 22:22:00,54.0,52.0,29.95,East,98,0.0,0.0,92,0.00,,,0.00,,2013-08-22 05:22:00,
2013-08-21 22:34:00,54.0,52.0,29.95,East,98,0.0,0.0,92,0.00,,,0.00,,2013-08-22 05:34:00,
2013-08-21 22:43:00,54.0,52.0,29.95,East,98,0.0,0.0,92,0.00,,,0.00,,2013-08-22 05:43:00,
2013-08-21 22:52:00,54.0,52.0,29.95,East,98,0.0,0.0,92,0.00,,,0.00,,2013-08-22 05:52:00,
2013-08-21 23:22:00,53.0,51.0,29.94,East,98,0.0,0.0,93,0.00,,,0.00,,2013-08-22 06:22:00,
2013-08-21 23:32:00,53.0,51.0,29.94,East,98,0.0,0.0,93,0.00,,,0.00,,2013-08-22 06:32:00,
2013-08-21 23:42:00,53.0,51.0,29.94,East,98,0.0,0.0,93,0.00,,,0.00,,2013-08-22 06:42:00,
2013-08-21 23:52:00,53.0,51.0,29.94,East,98,0.0,0.0,93,0.00,,,0.00,,2013-08-22 06:52:00,